Volver al catálogo

ANGOSAT 1

ActivoComunicacionesGEO
NORAD 43087·PAYLOAD·🇦🇴 Angola

Lanzado Dec 26, 2017 desde Baikonur Cosmodrome

Loading…

TLE

ActualizadoSource: Space-Track

Época: Sep 14, 2026, 11:41 UTC

1 43087U 17086A   26257.48686608 -.00000092  00000-0  00000-0 0  9994
2 43087   7.7968  66.2065 0020467 174.4914 202.6573  0.99377183 31629

Sigue ANGOSAT 1 en tiempo real con AllMySat

Download on the App Store